Location: Chmeln�
(49.6483°N, 14.9871°E)
Time: 05:25:28
(UTC+00:00)

Cosmos 1844 Rocket - Pass Details

Date: 18 September 2020
Orbit: 823 x 846 km, 71.0° (Epoch: 22 October)

Event Time Altitude Azimuth Distance (km) Brightness Sun altitude
Rises 19:39:47 0° 212° (SSW) 3,348 5.8 -24.2°
Reaches altitude 10° 19:42:12 10° 214° (SW) 2,420 5.1 -24.5°
Maximum altitude 19:47:45 76° 300° (WNW) 858 2.7 -25.2°
Drops below altitude 10° 19:53:21 10° 27° (NNE) 2,447 5.2 -25.9°
Sets 19:55:49 0° 29° (NNE) 3,387 6.0 -26.2°
